Tracking 22879 objects as of 20-Apr-2021
HD Live streaming from Space Station
objects crossing your sky now

LES 6

Track LES 6 now!
LES 6 is classified as:


NORAD ID: 3431
Int'l Code: 1968-081D
Perigee: 35,734.5 km
Apogee: 35,812.3 km
Inclination: 3.7 °
Period: 1,435.1 minutes
Semi major axis: 42144 km
RCS: 3.1622 m2 (large)
Launch date: September 26, 1968
Source: United States (US)
Launch site: AIR FORCE EASTERN TEST RANGE (AFETR)
aabbcc
Your satellite tracking list
Your tracking list is empty




NASA's NSSDC Master Catalog

Two Line Element Set (TLE):
1 03431U 68081D   21110.42055644 -.00000212  00000-0  00000-0 0  9995
2 03431   3.6809 304.3296 0009238  27.1851 301.9466  1.00344456101897
Source of the keplerian elements: AFSPC